Time,TemperatureF,DewpointF,PressureIn,WindDirection,WindDirectionDegrees,WindSpeedMPH,WindSpeedGustMPH,Humidity,HourlyPrecipIn,Conditions,Clouds,dailyrainin,SoftwareType,DateUTC
2013-11-10 00:14:00,32.0,31.5,30.01,WSW,247,0.0,-999.0,98,-99.99,,,0.00,Acu-Link.com,2013-11-10 08:14:00,
2013-11-10 00:29:00,32.0,31.5,30.00,West,270,0.0,-999.0,98,-99.99,,,0.00,Acu-Link.com,2013-11-10 08:29:00,
2013-11-10 00:44:00,32.0,31.5,30.00,West,270,0.0,-999.0,98,-99.99,,,0.00,Acu-Link.com,2013-11-10 08:44:00,
2013-11-10 00:59:00,32.0,31.5,30.00,West,270,0.0,-999.0,98,-99.99,,,0.00,Acu-Link.com,2013-11-10 08:59:00,
2013-11-10 01:15:00,32.0,31.5,30.00,West,270,0.0,-999.0,98,-99.99,,,0.00,Acu-Link.com,2013-11-10 09:15:00,
2013-11-10 01:30:00,32.0,31.5,30.01,North,0,0.0,-999.0,98,-99.99,,,0.00,Acu-Link.com,2013-11-10 09:30:00,
2013-11-10 01:45:00,32.0,31.5,30.01,WNW,292,0.0,-999.0,98,-99.99,,,0.00,Acu-Link.com,2013-11-10 09:45:00,
2013-11-10 02:00:00,32.0,31.5,30.02,WNW,292,0.0,-999.0,98,-99.99,,,0.00,Acu-Link.com,2013-11-10 10:00:00,
2013-11-10 02:15:00,32.0,31.5,30.02,NNW,337,0.0,-999.0,98,-99.99,,,0.00,Acu-Link.com,2013-11-10 10:15:00,
2013-11-10 02:30:00,32.0,31.5,30.02,NE,45,0.0,-999.0,98,-99.99,,,0.00,Acu-Link.com,2013-11-10 10:30:00,
2013-11-10 02:46:00,32.0,31.5,30.02,South,180,0.0,-999.0,98,-99.99,,,0.00,Acu-Link.com,2013-11-10 10:46:00,
2013-11-10 03:01:00,32.0,31.5,30.02,WNW,292,0.0,-999.0,98,-99.99,,,0.00,Acu-Link.com,2013-11-10 11:01:00,
2013-11-10 03:16:00,32.0,31.5,30.02,West,270,0.0,-999.0,98,-99.99,,,0.00,Acu-Link.com,2013-11-10 11:16:00,
2013-11-10 03:31:00,32.0,31.5,30.02,NW,315,0.0,-999.0,98,-99.99,,,0.00,Acu-Link.com,2013-11-10 11:31:00,
2013-11-10 03:46:00,32.0,31.5,30.02,SSE,157,0.0,-999.0,98,-99.99,,,0.00,Acu-Link.com,2013-11-10 11:46:00,
2013-11-10 04:01:00,32.0,31.5,30.02,SSE,157,0.0,-999.0,98,-99.99,,,0.00,Acu-Link.com,2013-11-10 12:01:00,
2013-11-10 04:16:00,32.0,31.5,30.02,South,180,0.0,-999.0,98,-99.99,,,0.00,Acu-Link.com,2013-11-10 12:16:00,
2013-11-10 04:31:00,32.0,31.5,30.02,South,180,0.0,-999.0,98,-99.99,,,0.00,Acu-Link.com,2013-11-10 12:31:00,
2013-11-10 04:47:00,32.0,31.5,30.03,South,180,0.0,-999.0,98,-99.99,,,0.00,Acu-Link.com,2013-11-10 12:47:00,
2013-11-10 05:02:00,32.0,31.5,30.03,NE,45,0.0,-999.0,98,-99.99,,,0.00,Acu-Link.com,2013-11-10 13:02:00,
2013-11-10 05:17:00,32.0,31.5,30.04,NE,45,0.0,-999.0,98,-99.99,,,0.00,Acu-Link.com,2013-11-10 13:17:00,
2013-11-10 05:32:00,32.0,31.5,30.04,WNW,292,0.0,-999.0,98,-99.99,,,0.00,Acu-Link.com,2013-11-10 13:32:00,
2013-11-10 05:47:00,32.0,31.5,30.05,SE,135,0.0,-999.0,98,-99.99,,,0.00,Acu-Link.com,2013-11-10 13:47:00,
2013-11-10 06:02:00,32.0,31.5,30.05,West,270,0.0,-999.0,98,-99.99,,,0.00,Acu-Link.com,2013-11-10 14:02:00,
2013-11-10 06:17:00,32.0,31.5,30.04,ESE,112,0.0,-999.0,98,-99.99,,,0.00,Acu-Link.com,2013-11-10 14:17:00,
2013-11-10 06:32:00,32.0,31.5,30.05,NE,45,0.0,-999.0,98,-99.99,,,0.00,Acu-Link.com,2013-11-10 14:32:00,
2013-11-10 06:48:00,32.0,31.5,30.06,NNW,337,0.0,-999.0,98,-99.99,,,0.00,Acu-Link.com,2013-11-10 14:48:00,
2013-11-10 07:03:00,32.0,31.5,30.06,NW,315,0.0,-999.0,98,-99.99,,,0.00,Acu-Link.com,2013-11-10 15:03:00,
2013-11-10 07:18:00,32.0,31.5,30.06,NE,45,0.0,-999.0,98,-99.99,,,0.00,Acu-Link.com,2013-11-10 15:18:00,
2013-11-10 07:33:00,32.0,31.5,30.06,ENE,67,0.0,-999.0,98,-99.99,,,0.00,Acu-Link.com,2013-11-10 15:33:00,
2013-11-10 07:48:00,32.0,31.5,30.07,South,180,0.0,-999.0,98,-99.99,,,0.00,Acu-Link.com,2013-11-10 15:48:00,
2013-11-10 08:03:00,32.0,31.5,30.07,SE,135,0.0,-999.0,98,-99.99,,,0.00,Acu-Link.com,2013-11-10 16:03:00,
2013-11-10 08:18:00,32.0,31.5,30.08,NW,315,0.0,-999.0,98,-99.99,,,0.00,Acu-Link.com,2013-11-10 16:18:00,
2013-11-10 08:34:00,32.0,31.5,30.09,North,0,0.0,-999.0,98,-99.99,,,0.00,Acu-Link.com,2013-11-10 16:34:00,
2013-11-10 08:49:00,32.0,31.5,30.09,NNE,22,0.0,-999.0,98,-99.99,,,0.00,Acu-Link.com,2013-11-10 16:49:00,
2013-11-10 09:04:00,32.0,31.5,30.09,South,180,0.0,-999.0,98,-99.99,,,0.00,Acu-Link.com,2013-11-10 17:04:00,
2013-11-10 09:19:00,32.0,31.5,30.10,SW,225,0.0,-999.0,98,-99.99,,,0.00,Acu-Link.com,2013-11-10 17:19:00,
2013-11-10 09:34:00,33.8,33.3,30.10,West,270,0.0,-999.0,98,-99.99,,,0.00,Acu-Link.com,2013-11-10 17:34:00,
2013-11-10 09:49:00,33.8,31.5,30.10,NE,45,0.0,-999.0,91,-99.99,,,0.00,Acu-Link.com,2013-11-10 17:49:00,
2013-11-10 10:05:00,33.8,31.2,30.11,WNW,292,0.0,-999.0,90,-99.99,,,0.00,Acu-Link.com,2013-11-10 18:05:00,
2013-11-10 10:20:00,33.8,30.9,30.11,West,270,1.1,-999.0,89,-99.99,,,0.00,Acu-Link.com,2013-11-10 18:20:00,
2013-11-10 10:35:00,33.8,30.6,30.12,South,180,0.0,-999.0,88,-99.99,,,0.00,Acu-Link.com,2013-11-10 18:35:00,
2013-11-10 10:50:00,33.8,30.3,30.13,West,270,2.0,-999.0,87,-99.99,,,0.00,Acu-Link.com,2013-11-10 18:50:00,
2013-11-10 11:05:00,33.8,30.1,30.13,NNW,337,0.0,-999.0,86,-99.99,,,0.00,Acu-Link.com,2013-11-10 19:05:00,
2013-11-10 11:20:00,33.8,30.1,30.13,NNE,22,0.0,-999.0,86,-99.99,,,0.00,Acu-Link.com,2013-11-10 19:20:00,
2013-11-10 11:35:00,33.8,29.8,30.13,South,180,1.6,-999.0,85,-99.99,,,0.00,Acu-Link.com,2013-11-10 19:35:00,
2013-11-10 11:50:00,33.8,29.8,30.13,West,270,0.0,-999.0,85,-99.99,,,0.00,Acu-Link.com,2013-11-10 19:50:00,
2013-11-10 12:06:00,33.8,30.1,30.13,SE,135,0.0,-999.0,86,-99.99,,,0.00,Acu-Link.com,2013-11-10 20:06:00,
2013-11-10 12:21:00,33.8,29.8,30.13,WNW,292,0.0,-999.0,85,-99.99,,,0.00,Acu-Link.com,2013-11-10 20:21:00,
2013-11-10 12:36:00,33.8,30.1,30.14,ENE,67,0.0,-999.0,86,-99.99,,,0.00,Acu-Link.com,2013-11-10 20:36:00,
2013-11-10 12:51:00,33.8,29.8,30.14,NW,315,0.0,-999.0,85,-99.99,,,0.00,Acu-Link.com,2013-11-10 20:51:00,
2013-11-10 13:06:00,33.8,29.8,30.14,ENE,67,1.1,-999.0,85,-99.99,,,0.00,Acu-Link.com,2013-11-10 21:06:00,
2013-11-10 13:21:00,33.8,29.8,30.14,NNW,337,0.0,-999.0,85,-99.99,,,0.01,Acu-Link.com,2013-11-10 21:21:00,
2013-11-10 13:36:00,33.8,29.8,30.15,WSW,247,0.0,-999.0,85,-99.99,,,0.01,Acu-Link.com,2013-11-10 21:36:00,
2013-11-10 13:52:00,33.8,29.8,30.15,SSE,157,0.0,-999.0,85,-99.99,,,0.01,Acu-Link.com,2013-11-10 21:52:00,
2013-11-10 14:07:00,33.8,29.8,30.15,WNW,292,0.0,-999.0,85,-99.99,,,0.01,Acu-Link.com,2013-11-10 22:07:00,
2013-11-10 14:22:00,32.0,28.0,30.14,SW,225,1.1,-999.0,85,-99.99,,,0.01,Acu-Link.com,2013-11-10 22:22:00,
2013-11-10 14:38:00,32.0,28.3,30.15,SSW,202,0.0,-999.0,86,-99.99,,,0.01,Acu-Link.com,2013-11-10 22:38:00,
2013-11-10 14:53:00,32.0,28.3,30.15,SW,225,0.0,-999.0,86,-99.99,,,0.01,Acu-Link.com,2013-11-10 22:53:00,
2013-11-10 15:08:00,32.0,28.3,30.15,WNW,292,0.0,-999.0,86,-99.99,,,0.01,Acu-Link.com,2013-11-10 23:08:00,
2013-11-10 15:23:00,32.0,28.3,30.15,ENE,67,0.0,-999.0,86,-99.99,,,0.01,Acu-Link.com,2013-11-10 23:23:00,
2013-11-10 15:38:00,32.0,28.3,30.16,ESE,112,0.0,-999.0,86,-99.99,,,0.01,Acu-Link.com,2013-11-10 23:38:00,
2013-11-10 15:53:00,32.0,28.6,30.16,West,270,0.0,-999.0,87,-99.99,,,0.01,Acu-Link.com,2013-11-10 23:53:00,
2013-11-10 16:09:00,32.0,28.9,30.16,North,0,0.0,-999.0,88,-99.99,,,0.01,Acu-Link.com,2013-11-11 00:09:00,
2013-11-10 16:24:00,32.0,29.1,30.16,South,180,0.0,-999.0,89,-99.99,,,0.01,Acu-Link.com,2013-11-11 00:24:00,
2013-11-10 16:39:00,30.2,27.4,30.16,South,180,0.0,-999.0,89,-99.99,,,0.01,Acu-Link.com,2013-11-11 00:39:00,
2013-11-10 16:54:00,30.2,27.6,30.17,South,180,0.0,-999.0,90,-99.99,,,0.01,Acu-Link.com,2013-11-11 00:54:00,
2013-11-10 17:09:00,30.2,27.6,30.17,ESE,112,0.0,-999.0,90,-99.99,,,0.01,Acu-Link.com,2013-11-11 01:09:00,
2013-11-10 17:24:00,30.2,27.9,30.18,ESE,112,0.0,-999.0,91,-99.99,,,0.01,Acu-Link.com,2013-11-11 01:24:00,
2013-11-10 17:39:00,30.2,27.9,30.18,SSE,157,0.0,-999.0,91,-99.99,,,0.01,Acu-Link.com,2013-11-11 01:39:00,
2013-11-10 17:55:00,28.4,26.1,30.18,NW,315,0.0,-999.0,91,-99.99,,,0.01,Acu-Link.com,2013-11-11 01:55:00,
2013-11-10 18:10:00,28.4,26.1,30.18,West,270,0.0,-999.0,91,-99.99,,,0.01,Acu-Link.com,2013-11-11 02:10:00,
2013-11-10 18:25:00,28.4,27.9,30.18,NE,45,0.0,-999.0,98,-99.99,,,0.01,Acu-Link.com,2013-11-11 02:25:00,
2013-11-10 18:40:00,28.4,27.9,30.18,NE,45,0.0,-999.0,98,-99.99,,,0.01,Acu-Link.com,2013-11-11 02:40:00,
2013-11-10 18:55:00,28.4,27.9,30.19,NNW,337,0.0,-999.0,98,-99.99,,,0.01,Acu-Link.com,2013-11-11 02:55:00,
2013-11-10 19:11:00,26.6,26.1,30.19,ENE,67,0.0,-999.0,98,-99.99,,,0.01,Acu-Link.com,2013-11-11 03:11:00,
2013-11-10 19:26:00,26.6,26.1,30.18,East,90,0.0,-999.0,98,-99.99,,,0.01,Acu-Link.com,2013-11-11 03:26:00,
2013-11-10 19:41:00,26.6,26.1,30.19,West,270,0.0,-999.0,98,-99.99,,,0.01,Acu-Link.com,2013-11-11 03:41:00,
2013-11-10 19:57:00,26.6,26.1,30.19,South,180,0.0,-999.0,98,-99.99,,,0.01,Acu-Link.com,2013-11-11 03:57:00,
2013-11-10 20:12:00,26.6,26.1,30.20,ESE,112,0.0,-999.0,98,-99.99,,,0.01,Acu-Link.com,2013-11-11 04:12:00,
2013-11-10 20:27:00,26.6,26.1,30.20,SE,135,0.0,-999.0,98,-99.99,,,0.01,Acu-Link.com,2013-11-11 04:27:00,
2013-11-10 20:42:00,26.6,26.1,30.20,ESE,112,0.0,-999.0,98,-99.99,,,0.01,Acu-Link.com,2013-11-11 04:42:00,
2013-11-10 20:57:00,26.6,26.1,30.21,ESE,112,0.0,-999.0,98,-99.99,,,0.01,Acu-Link.com,2013-11-11 04:57:00,
2013-11-10 21:28:00,26.6,26.1,30.21,ENE,67,0.0,-999.0,98,-99.99,,,0.01,Acu-Link.com,2013-11-11 05:28:00,
2013-11-10 21:43:00,28.4,27.9,30.21,ENE,67,0.0,-999.0,98,-99.99,,,0.01,Acu-Link.com,2013-11-11 05:43:00,
2013-11-10 21:58:00,28.4,27.9,30.22,ESE,112,0.0,-999.0,98,-99.99,,,0.01,Acu-Link.com,2013-11-11 05:58:00,
2013-11-10 22:14:00,28.4,27.9,30.21,SSW,202,0.0,-999.0,98,-99.99,,,0.01,Acu-Link.com,2013-11-11 06:14:00,
2013-11-10 22:29:00,28.4,27.9,30.22,SE,135,0.0,-999.0,98,-99.99,,,0.01,Acu-Link.com,2013-11-11 06:29:00,
2013-11-10 22:44:00,28.4,27.9,30.21,SE,135,0.0,-999.0,98,-99.99,,,0.01,Acu-Link.com,2013-11-11 06:44:00,
2013-11-10 22:59:00,28.4,27.9,30.22,SSW,202,0.0,-999.0,98,-99.99,,,0.01,Acu-Link.com,2013-11-11 06:59:00,
2013-11-10 23:15:00,28.4,27.9,30.22,SE,135,1.6,-999.0,98,-99.99,,,0.01,Acu-Link.com,2013-11-11 07:15:00,
2013-11-10 23:30:00,28.4,27.9,30.22,ESE,112,1.1,-999.0,98,-99.99,,,0.01,Acu-Link.com,2013-11-11 07:30:00,
2013-11-10 23:45:00,28.4,27.9,30.22,SW,225,0.0,-999.0,98,-99.99,,,0.01,Acu-Link.com,2013-11-11 07:45:00,